TimeCDT,TemperatureF,Dew PointF,Humidity,Sea Level PressureIn,VisibilityMPH,Wind Direction,Wind SpeedMPH,Gust SpeedMPH,PrecipitationIn,Events,Conditions,WindDirDegrees,DateUTC
12:53 AM,79.0,69.1,72,30.16,10.0,ESE,4.6,-,N/A,,Clear,120,2013-08-26 05:53:00
1:53 AM,77.0,69.1,76,30.15,10.0,ESE,3.5,-,N/A,,Clear,110,2013-08-26 06:53:00
2:53 AM,75.9,69.1,79,30.15,10.0,ESE,3.5,-,N/A,,Clear,110,2013-08-26 07:53:00
3:53 AM,73.0,69.1,87,30.16,10.0,Calm,Calm,-,N/A,,Clear,0,2013-08-26 08:53:00
4:53 AM,73.0,69.1,87,30.16,10.0,ESE,4.6,-,N/A,,Clear,110,2013-08-26 09:53:00
5:53 AM,72.0,69.1,91,30.17,10.0,ESE,3.5,-,N/A,,Clear,110,2013-08-26 10:53:00
6:53 AM,71.1,69.1,93,30.18,9.0,Calm,Calm,-,N/A,,Clear,0,2013-08-26 11:53:00
7:53 AM,73.9,70.0,87,30.19,10.0,Calm,Calm,-,N/A,,Clear,0,2013-08-26 12:53:00
8:53 AM,80.1,71.1,74,30.19,10.0,SE,5.8,-,N/A,,Clear,140,2013-08-26 13:53:00
9:53 AM,82.9,71.1,67,30.21,10.0,ESE,9.2,-,N/A,,Clear,110,2013-08-26 14:53:00
10:53 AM,87.1,69.1,55,30.20,10.0,SSE,10.4,16.1,N/A,,Scattered Clouds,150,2013-08-26 15:53:00
11:53 AM,88.0,68.0,51,30.19,10.0,ESE,6.9,-,N/A,,Scattered Clouds,120,2013-08-26 16:53:00
12:53 PM,91.9,66.0,42,30.18,10.0,SE,12.7,19.6,N/A,,Scattered Clouds,140,2013-08-26 17:53:00
1:53 PM,93.0,64.0,38,30.15,10.0,SE,11.5,19.6,N/A,,Scattered Clouds,140,2013-08-26 18:53:00
2:53 PM,91.9,61.0,35,30.13,10.0,SE,11.5,-,N/A,,Partly Cloudy,140,2013-08-26 19:53:00
3:53 PM,93.9,62.1,35,30.10,10.0,East,9.2,-,N/A,,Scattered Clouds,100,2013-08-26 20:53:00
4:53 PM,93.9,59.0,31,30.09,10.0,SSE,11.5,19.6,N/A,,Clear,150,2013-08-26 21:53:00
5:53 PM,93.9,61.0,33,30.08,10.0,ESE,8.1,-,N/A,,Mostly Cloudy,110,2013-08-26 22:53:00
6:53 PM,91.0,62.1,38,30.08,10.0,SE,6.9,-,N/A,,Clear,130,2013-08-26 23:53:00
7:53 PM,87.1,63.0,44,30.08,10.0,SE,3.5,-,N/A,,Clear,130,2013-08-27 00:53:00
8:53 PM,84.0,63.0,49,30.08,10.0,SE,3.5,-,N/A,,Clear,130,2013-08-27 01:53:00
9:53 PM,79.0,64.0,60,30.09,10.0,Calm,Calm,-,N/A,,Clear,0,2013-08-27 02:53:00
10:53 PM,80.1,63.0,56,30.09,10.0,SE,3.5,-,N/A,,Clear,130,2013-08-27 03:53:00
11:53 PM,81.0,64.0,56,30.10,10.0,South,8.1,-,N/A,,Clear,180,2013-08-27 04:53:00